GFSNE_con_lsi_033.txt.gz
Lid_Strength_Index
0 0 1 0 0 -0 0 1 3 6 5 3 3 -0 -0 -0 1 1 1 2 2 3 4 3 2 2 1 1 0 1 1 1 0 0 -1 -1 -1 -1
0 1 1 0 0 0 1 0 1 2 5 2 2 1 0 1 1 1 1 2 3 4 3 3 3 3 2 1 1 1 1 1 1 -1 -0 -0 0 1
1 1 1 1 0 1 1 1 1 1 4 2 1 1 2 2 2 2 1 1 2 3 3 3 3 3 2 2 2 2 1 1 0 1 1 1 1 1
1 1 1 1 1 1 1 1 2 1 3 4 2 2 2 2 2 2 2 1 2 3 4 4 3 3 3 3 3 2 2 2 2 2 2 2 3 3
1 1 1 1 1 2 1 2 1 1 2 3 4 3 3 2 3 2 2 2 2 3 4 4 4 4 4 3 4 4 5 5 5 5 4 4 5 4
0 1 1 1 2 1 2 2 2 2 2 3 4 4 3 3 3 4 4 3 3 2 4 4 4 4 4 4 4 5 6 7 7 7 7 7 6 6
0 1 0 1 3 2 1 1 2 3 3 4 4 4 4 4 4 4 4 3 3 2 3 4 2 3 3 4 5 6 7 7 7 7 7 8 8 8
1 1 0 1 3 6 4 4 2 2 3 4 4 4 4 3 3 3 4 3 4 1 1 1 -0 2 2 5 7 7 7 8 7 7 8 8 9 9
1 1 1 0 1 1 6 6 6 6 4 2 3 3 3 3 3 4 4 2 2 0 0 2 1 3 5 7 7 8 8 8 8 8 8 9 9 10
0 1 1 1 1 1 1 2 2 2 2 1 2 2 2 2 3 3 2 0 1 -0 -1 2 1 4 4 6 8 8 8 9 9 9 9 10 10 10
1 0 0 1 8 7 2 3 3 3 7 7 7 7 8 7 3 1 2 2 3 2 -0 1 1 3 4 6 8 8 9 9 9 10 10 10 10 10
1 2 8 4 9 7 1 3 3 3 2 2 2 5 4 4 6 -1 0 2 2 3 0 1 1 2 4 4 6 8 8 9 10 10 10 10 10 6
1 1 3 10 9 8 5 1 1 1 3 1 0 1 0 -0 -0 -1 -1 -1 1 2 0 -0 1 2 1 3 3 3 3 6 6 8 9 10 10 11
2 1 4 11 10 8 4 9 8 4 1 1 1 1 1 1 -0 -1 -2 -1 -0 -0 -1 -2 1 1 2 2 3 3 4 4 5 5 6 9 10 10
0 5 10 11 10 7 9 9 8 1 1 2 2 1 1 -0 -1 -0 0 1 -0 -1 -1 -2 -0 -0 0 1 3 4 5 5 5 7 7 7 7 7
6 3 4 6 8 4 3 4 0 0 1 1 1 0 0 0 1 -0 1 1 2 3 2 1 0 1 3 4 5 6 7 7 6 7 7 7 7 7
1 0 1 1 1 1 1 0 0 0 1 0 1 1 1 1 1 1 2 2 3 4 5 5 4 3 5 5 7 7 7 7 7 7 8 8 7 7
1 1 1 1 1 1 1 1 1 1 1 0 0 1 2 2 2 1 1 2 2 4 5 5 6 6 7 8 10 7 7 7 7 7 8 10 10 8
1 2 1 1 1 1 1 1 1 0 -0 0 0 1 1 1 3 2 2 2 2 2 4 5 7 8 10 11 11 13 7 8 9 9 9 10 10 9
1 1 1 1 1 1 1 1 1 0 0 0 0 1 0 1 2 2 3 2 3 3 4 5 6 8 9 8 9 12 15 10 10 10 10 9 9 10
1 1 1 1 1 0 0 0 0 1 1 0 1 1 1 1 1 2 2 8 6 2 4 5 6 12 7 7 9 12 13 13 12 10 10 12 11 10
1 1 0 0 0 0 0 0 0 1 0 1 1 0 0 1 1 1 2 2 2 2 4 6 8 8 8 9 10 11 11 11 12 12 13 12 11 12
1 0 0 0 0 0 0 0 0 0 0 0 0 0 0 1 1 1 1 1 1 3 4 8 9 9 10 10 12 12 11 10 10 10 10 12 12 11

GFSNE_con_lsi_036.txt.gz
Lid_Strength_Index
1 1 1 1 1 1 2 2 4 6 6 3 3 0 -0 -0 -0 1 2 2 2 3 4 4 3 2 2 1 1 1 1 0 0 0 -0 -1 -1 -1
1 1 1 1 1 1 1 2 2 4 6 3 2 1 1 -0 -1 1 1 2 3 3 3 3 3 3 3 2 2 2 2 2 2 1 -1 -1 -0 0
1 1 2 1 2 1 1 1 2 2 4 3 1 1 1 2 1 1 1 2 2 3 3 3 4 4 3 3 3 2 2 2 2 0 0 0 1 1
2 2 2 1 2 1 2 2 2 2 3 4 2 2 2 2 2 2 2 2 2 3 4 4 4 4 4 4 4 4 4 2 2 2 2 2 2 2
1 2 2 2 2 2 2 2 2 2 2 3 3 2 2 2 3 3 3 3 3 3 5 5 5 5 5 5 6 4 4 5 5 4 4 3 4 4
1 1 1 1 2 2 2 2 2 2 2 3 4 3 3 3 3 4 4 3 3 4 5 5 6 6 6 4 4 5 6 7 7 7 6 6 6 6
1 1 1 2 2 2 2 2 3 3 3 4 4 4 4 4 4 4 5 4 5 4 6 6 7 5 5 5 5 6 7 7 7 8 8 7 7 7
2 1 1 2 4 5 5 5 3 3 4 4 4 5 4 4 4 5 5 5 6 3 5 5 4 5 5 7 7 7 7 7 7 7 8 8 8 8
1 1 1 1 2 3 7 6 6 6 5 3 4 4 4 4 4 4 4 4 4 4 4 3 3 7 8 8 7 8 8 8 8 8 8 8 9 9
1 1 1 1 1 2 2 3 3 2 3 2 3 3 3 3 3 3 3 2 2 3 3 4 5 8 8 9 8 8 9 9 9 9 8 9 9 9
1 1 1 2 8 7 2 3 3 4 7 7 7 8 9 8 4 3 3 4 5 4 1 3 4 6 7 9 9 8 9 9 9 9 9 10 10 10
1 3 7 5 8 7 2 3 3 3 3 3 4 6 6 6 7 2 2 4 3 3 1 3 4 4 6 7 9 10 10 9 9 9 9 9 10 10
2 2 4 9 7 7 6 2 3 2 4 2 2 1 2 2 2 2 0 1 2 3 1 1 3 4 4 6 8 9 10 10 11 11 11 10 11 11
2 3 7 10 9 7 5 10 9 5 2 2 2 2 2 1 1 0 0 0 1 1 1 1 3 4 4 6 7 8 8 8 10 9 11 10 10 10
1 7 11 10 10 9 9 8 7 1 1 2 2 2 1 0 0 1 2 2 2 2 0 0 1 3 4 5 5 8 8 8 7 8 8 10 11 11
7 5 6 6 6 5 5 5 1 1 1 2 2 1 1 1 1 2 4 4 4 5 3 4 3 3 3 4 6 9 8 9 8 8 9 10 8 9
2 1 2 2 2 2 1 1 1 1 1 1 2 2 1 1 2 1 2 3 4 5 6 6 5 8 9 8 8 8 8 8 7 9 10 10 10 10
2 2 2 2 2 2 2 2 1 2 1 1 1 2 2 2 2 2 3 3 4 5 6 7 7 8 8 9 10 8 8 8 8 9 10 12 12 10
2 2 2 2 2 2 2 2 2 1 1 1 1 2 2 2 5 3 3 3 3 4 5 6 7 7 10 11 12 13 9 9 10 11 11 12 12 11
2 2 2 2 2 2 2 2 1 1 1 1 1 1 1 2 3 3 3 3 3 3 4 5 7 7 9 10 11 14 14 11 11 11 12 11 11 10
2 2 2 1 1 1 1 1 1 1 1 1 1 1 1 2 2 3 3 8 7 4 4 5 6 10 7 9 12 13 13 13 13 12 12 14 14 13
2 2 1 1 1 1 1 1 1 2 1 1 1 1 1 1 2 2 2 3 4 4 4 9 8 8 9 10 12 13 14 13 13 12 12 12 13 15
1 1 1 1 1 1 1 1 1 1 1 1 1 1 1 2 1 1 2 2 3 4 8 10 9 9 10 11 13 13 12 12 11 13 12 12 11 11

GFSNE_con_lsi_042.txt.gz
Lid_Strength_Index
2 3 2 1 2 2 3 2 4 7 6 3 3 1 -0 0 1 0 2 2 3 3 3 3 3 3 2 2 2 1 1 1 0 -0 -0 -0 -1 -1
2 2 2 1 2 1 3 2 3 4 6 3 2 1 1 1 2 2 2 3 4 3 3 3 3 3 3 3 3 2 2 2 1 1 0 0 0 -1
2 2 2 2 2 2 2 2 3 3 4 3 2 2 2 2 3 2 3 3 3 4 3 3 4 4 4 4 4 3 3 3 2 2 2 1 -0 -0
2 2 2 1 2 2 3 3 3 3 3 4 2 2 3 2 2 3 3 3 4 4 4 4 4 5 5 5 5 5 5 4 4 3 1 1 1 1
1 2 2 2 2 2 3 3 3 2 2 3 3 1 3 2 2 2 3 3 2 3 5 5 5 5 5 6 6 6 6 6 5 3 2 2 2 3
1 1 1 2 2 2 2 2 2 2 2 3 3 3 2 1 2 3 4 3 4 4 5 5 5 6 6 6 5 6 7 6 6 5 5 5 5 5
1 1 1 2 2 2 1 2 2 2 3 3 3 3 3 3 4 4 5 5 6 6 6 7 8 8 7 6 5 5 5 6 6 6 6 7 7 6
2 2 2 3 4 6 4 3 2 2 3 3 3 4 4 4 4 4 5 6 7 5 7 8 8 9 9 9 6 6 7 7 7 7 7 7 8 8
3 2 2 3 4 5 7 6 6 6 4 3 4 4 5 4 4 5 5 5 6 6 7 9 9 11 10 8 7 8 8 8 8 8 8 8 9 10
2 2 3 3 3 3 3 4 3 3 3 3 3 3 3 3 3 4 4 5 5 6 7 10 10 11 10 10 8 8 8 9 8 8 9 10 11 11
1 2 3 3 9 8 3 4 4 5 8 8 8 9 9 8 5 4 5 6 7 7 5 8 9 11 11 11 10 8 9 10 10 10 10 10 11 10
3 3 7 5 10 9 3 4 4 4 4 4 5 7 6 7 7 3 5 6 5 6 4 7 8 9 10 10 12 11 12 10 11 11 10 10 10 12
3 3 4 10 10 10 7 3 4 4 5 4 4 4 4 4 4 4 4 4 4 4 3 6 7 9 9 11 12 13 13 13 13 12 10 10 10 11
3 3 6 11 11 10 7 11 10 6 3 3 4 4 4 5 4 3 2 2 2 3 4 5 7 8 8 11 11 12 13 13 13 14 13 11 10 10
3 6 11 11 11 10 11 10 7 2 3 3 4 4 4 2 3 3 3 2 3 3 2 4 6 8 7 8 8 11 12 12 12 14 12 12 12 12
9 7 8 7 8 7 7 5 2 3 3 2 2 2 3 2 3 4 4 5 5 5 6 5 5 6 7 7 7 8 9 9 11 11 12 11 12 12
6 6 4 3 4 3 2 2 2 2 2 2 2 2 2 2 3 4 4 5 6 6 6 9 11 10 11 8 7 7 8 9 9 10 10 11 11 10
5 5 4 3 3 3 2 2 3 3 2 2 3 2 2 2 3 4 4 5 6 6 7 9 11 10 11 12 10 9 9 9 10 11 11 12 13 12
4 5 4 3 3 2 2 2 3 2 3 2 2 3 3 3 6 3 4 5 6 7 7 8 10 9 11 10 12 12 10 11 11 12 12 12 13 12
4 4 4 3 3 3 2 3 3 3 2 2 2 3 3 3 4 3 4 4 4 5 7 8 9 10 8 8 11 13 13 12 12 12 13 14 14 12
4 3 3 3 3 2 2 2 3 3 3 3 3 3 3 3 3 3 3 8 7 4 6 6 6 11 11 12 13 14 15 12 11 11 12 13 14 13
2 2 2 2 2 3 3 3 3 5 4 3 3 3 3 3 3 4 4 4 6 5 4 6 10 11 12 11 13 15 16 14 12 11 11 11 12 15
2 2 2 2 2 3 2 3 3 3 3 2 3 2 3 4 3 4 4 4 5 6 8 11 12 13 13 12 14 17 16 14 12 12 11 11 11 10

GFSNE_con_lsi_045.txt.gz
Lid_Strength_Index
3 3 3 3 3 2 4 3 5 7 6 3 3 1 0 1 0 1 2 2 2 3 3 2 3 2 1 1 1 1 1 1 1 0 -0 0 0 -1
2 3 3 3 2 2 3 3 4 4 6 3 2 1 1 2 1 1 1 3 3 3 3 3 3 3 3 3 3 2 2 2 2 1 1 0 -0 -0
3 3 3 3 2 2 2 3 4 3 4 3 2 2 3 3 3 2 2 2 3 3 3 4 4 4 4 3 4 3 3 2 2 2 2 1 -0 -1
2 3 2 2 2 3 2 4 4 3 3 4 3 3 4 3 4 4 3 3 3 3 4 4 4 4 5 5 5 5 5 4 4 3 2 1 0 0
2 2 2 2 3 3 4 3 3 3 2 3 3 3 3 3 4 3 5 5 3 3 4 4 5 5 5 6 6 6 6 6 6 4 2 2 2 2
1 2 1 2 2 2 3 2 2 2 2 3 3 3 3 3 3 4 5 4 4 4 5 5 5 5 6 6 6 6 7 6 6 5 5 5 5 4
2 1 1 2 2 2 2 2 2 2 2 3 3 3 3 3 4 3 5 5 5 5 6 7 7 7 7 5 5 5 6 6 6 6 6 7 7 6
2 2 2 3 4 5 4 4 3 2 3 3 3 4 3 3 3 4 5 5 7 5 7 9 8 9 9 8 7 6 6 6 6 7 7 7 8 9
3 2 2 3 3 3 5 5 5 5 3 2 3 3 3 3 4 4 4 5 6 7 7 10 10 11 11 8 7 7 8 7 7 7 8 9 9 10
2 2 3 3 4 3 2 2 2 2 2 2 2 3 3 3 3 4 5 6 6 6 7 10 11 11 10 10 8 8 8 8 9 9 9 9 10 10
2 2 3 4 10 8 3 4 4 4 7 8 8 9 9 8 5 4 6 6 7 7 7 8 9 11 11 11 10 8 9 10 10 10 9 9 10 10
3 4 7 5 10 9 4 4 5 5 5 5 6 7 6 7 7 4 4 6 7 8 6 8 10 10 10 10 12 11 12 10 10 10 9 9 10 12
3 4 5 11 11 10 7 3 5 4 6 4 4 5 4 4 4 4 4 5 6 6 5 7 8 9 9 11 12 13 12 13 12 11 9 9 9 11
3 3 7 11 11 11 7 10 10 6 4 4 4 4 4 4 4 4 4 4 3 4 4 6 8 8 9 11 10 12 13 13 13 13 13 11 10 10
3 6 11 12 12 10 11 10 8 3 4 4 4 4 4 5 5 4 3 2 3 3 4 5 7 8 8 8 9 10 12 12 13 14 14 13 13 12
8 7 8 8 8 7 7 5 4 4 4 4 4 5 4 4 4 4 4 5 5 5 7 5 6 7 8 8 8 10 11 9 12 12 13 13 13 12
6 4 4 4 4 4 3 3 3 3 4 4 3 4 3 3 4 4 5 6 6 6 7 9 11 9 10 8 8 8 9 9 9 11 13 13 12 12
4 3 4 4 4 4 3 2 3 4 3 3 3 2 2 3 3 4 5 5 6 6 7 9 11 11 11 11 9 8 9 8 10 10 11 12 13 12
5 3 3 3 3 2 2 2 2 3 3 2 2 2 3 3 4 4 4 4 5 6 6 8 10 9 9 8 10 11 9 11 11 12 12 12 12 11
5 4 3 3 3 2 2 2 2 3 2 2 3 3 3 3 4 3 3 3 4 5 7 9 9 10 8 6 8 12 13 12 12 12 13 13 13 12
5 4 3 3 2 2 2 2 2 2 2 2 3 3 3 3 3 3 3 10 8 6 6 6 6 11 10 11 11 12 15 12 11 12 12 13 13 13
4 4 4 3 3 2 2 2 3 4 4 3 3 2 3 3 3 3 4 4 6 4 4 6 10 11 12 10 8 12 16 15 13 11 10 11 12 13
3 3 3 3 3 3 3 3 3 3 3 3 4 4 4 4 3 3 3 4 4 5 6 10 12 13 12 11 12 17 16 16 13 14 13 12 11 11

GFSNE_con_lsi_048.txt.gz
Lid_Strength_Index
1 1 1 1 1 1 2 2 3 6 5 3 3 0 -0 -0 -1 -0 0 2 2 3 3 3 2 2 1 1 1 1 1 1 1 1 1 1 0 -0
1 1 2 2 1 1 1 2 1 3 5 2 2 1 1 1 -1 1 1 2 3 3 3 3 3 3 2 3 2 2 2 2 2 1 0 0 -0 -1
1 2 2 1 1 1 2 2 2 2 4 3 2 2 3 3 2 2 2 2 3 3 3 3 4 4 4 4 3 3 2 2 2 2 1 1 -0 -1
2 2 2 1 1 1 1 2 2 1 3 4 3 3 4 3 2 3 3 3 3 4 4 4 5 5 5 4 4 4 4 4 4 3 2 1 0 -0
1 2 1 2 2 2 1 2 1 1 2 3 4 3 3 3 4 3 5 4 3 3 4 4 4 4 5 6 6 6 6 6 6 5 3 2 1 1
1 1 1 1 2 2 2 2 1 2 2 3 4 4 4 3 4 5 5 4 4 3 4 5 5 5 5 6 6 6 7 7 7 5 4 4 4 4
1 1 1 2 2 2 1 1 2 2 3 3 4 4 4 4 5 5 6 5 5 5 6 6 6 6 5 5 4 5 7 6 6 5 6 6 6 6
2 2 2 3 3 4 4 4 2 2 2 3 3 4 4 3 4 5 5 6 8 5 7 8 6 8 7 6 7 6 6 6 6 6 6 7 8 8
2 2 2 2 2 1 5 5 5 5 3 2 3 3 3 3 3 4 4 4 6 6 6 9 8 9 8 7 7 7 7 7 7 7 8 8 9 9
1 2 3 3 3 2 2 2 2 1 1 1 1 1 1 1 2 3 5 6 6 6 6 8 8 8 8 7 8 8 7 8 9 8 9 9 9 9
2 2 3 3 9 8 2 2 3 4 7 7 7 7 8 8 5 4 5 5 7 6 6 6 8 7 7 7 7 8 9 10 9 9 8 8 9 9
3 4 8 6 11 9 3 3 4 4 4 4 5 7 6 7 7 3 4 5 6 7 4 6 7 7 6 7 8 8 8 9 9 9 9 9 9 8
4 4 6 11 11 10 7 3 4 3 5 4 4 4 4 4 4 3 3 4 5 5 4 5 7 7 6 7 8 8 8 8 8 8 9 9 9 9
3 4 7 12 11 10 8 11 10 6 4 4 4 4 4 4 4 4 3 3 3 3 3 2 6 5 5 6 6 8 8 8 8 9 9 9 10 10
3 7 12 12 12 10 11 10 8 4 4 4 5 4 4 3 3 4 3 2 1 1 3 3 4 4 4 4 4 6 7 7 8 9 9 10 10 9
8 8 8 8 8 8 6 5 3 3 3 3 3 4 4 3 3 2 2 1 2 2 3 3 3 4 4 4 4 4 6 5 8 8 9 9 10 10
5 4 4 4 5 4 3 3 3 3 3 3 3 4 3 2 2 1 1 2 2 2 3 5 6 4 4 3 4 3 3 5 5 6 9 8 8 9
4 4 4 4 4 3 3 3 3 4 3 3 2 2 2 2 2 2 2 1 2 2 3 4 6 5 5 5 5 2 3 3 3 5 7 7 6 7
3 3 3 3 3 3 2 3 3 2 2 1 1 1 1 1 3 2 2 2 2 2 2 3 4 4 4 4 3 9 4 4 5 6 6 7 7 7
3 3 3 3 2 2 2 2 1 1 1 1 1 1 2 1 2 2 2 2 2 2 2 2 3 4 4 3 3 4 13 6 6 6 7 8 10 13
3 2 2 2 2 1 1 1 2 2 2 1 1 1 1 1 2 1 2 8 6 2 3 2 2 9 3 5 5 5 9 13 9 7 8 9 10 10
2 2 2 1 1 1 1 2 2 3 2 1 1 1 1 1 2 1 1 2 3 2 2 1 4 5 6 5 4 3 7 11 12 11 10 10 10 10
2 2 2 1 1 1 2 2 2 2 1 1 1 1 1 1 1 1 1 1 1 2 2 2 5 7 5 6 6 4 8 10 10 11 12 12 11 11